Content
SEND FEEDBACK

Daily
Averages
Monthly
Summary
United States of America

DOWNIEVILLE, CALIFORNIA


Home > North America > United States > California
Elevation: 5045 feet     Latitude: 39 34N     Longitude: 120 38W

WEATHER
 
SELECT A DAY
Number of Records: 233,711;   Date Range: 1/1/95 - 10/20/14
 
SHARE

PRINT THIS DATA

[ ← Previous Day ]
WEATHER ALMANAC - MARCH 12, 2013
[ Next Day → ]
[ °C ]   °F
Weather ElementAverageHighLow
Temperature55.5 °F62.1 °F (2:52 pm)51.1 °F (1:52 am)
Dewpoint31.9 °F43 °F (6:52 pm)21 °F (4:52 am)
Humidity42.4 %66 % (7:52 pm)25 % (9:52 am)
Barometer30.09 in30.13 in (11:52 pm)30.05 in (5:52 am)
Wind Speed1.7 mph5.8 mph (3:52 pm)
Weather ElementAverage
Visibility10 mi
Wind DirectionNE (50 °)

Weather ElementTotal
Precipitation---
Heating Degree Days8.4 (Base 65)
Growing Degree Days6.6 (Base 50)
Averaged from 23 records on March 12, 2013
WEATHER CONDITIONS BREAKOUT
WIND DIRECTION BREAKOUT
WEATHER BY HOUR - MARCH 12, 2013
[ °C ]   °F
Local TimeTemperatureDewpointHumidityBarometerVisibilityWind DirectionWind SpeedGust SpeedPrecipitationEventsConditions
1:52 AM51.1 °F21.9 °F32 %30.07 in10.0 miNE (40°)3.5 mphClear
2:52 AM51.1 °F23.0 °F33 %30.08 in10.0 miCalmClear
3:52 AM52.0 °F25.0 °F35 %30.06 in10.0 miCalmClear
4:52 AM52.0 °F21.0 °F30 %30.06 in10.0 miCalmClear
5:52 AM54.0 °F25.0 °F33 %30.05 in10.0 miCalmClear
6:52 AM52.0 °F23.0 °F32 %30.08 in10.0 miCalmClear
7:52 AM51.1 °F21.9 °F32 %30.10 in10.0 miNE (40°)4.6 mphClear
8:52 AM55.9 °F23.0 °F28 %30.09 in10.0 miNNE (30°)3.5 mphClear
9:52 AM59.0 °F23.0 °F25 %30.09 in10.0 miNNW (330°)3.5 mphClear
10:52 AM59.0 °F26.1 °F28 %30.09 in10.0 miCalmClear
11:52 AM57.9 °F33.1 °F39 %30.10 in10.0 miWest (280°)3.5 mphClear
12:52 PM59.0 °F34.0 °F39 %30.09 in10.0 miCalmClear
1:52 PM60.1 °F36.0 °F41 %30.08 in10.0 miVariable3.5 mphClear
2:52 PM62.1 °F35.1 °F37 %30.05 in10.0 miCalmClear
3:52 PM60.1 °F37.9 °F44 %30.07 in10.0 miSSW (200°)5.8 mphClear
4:52 PM60.1 °F37.9 °F44 %30.07 in10.0 miVariable4.6 mphClear
5:52 PM57.9 °F39.9 °F51 %30.07 in10.0 miCalmClear
6:52 PM55.0 °F43.0 °F64 %30.09 in10.0 miCalmClear
7:52 PM54.0 °F43.0 °F66 %30.12 in10.0 miCalmClear
8:52 PM54.0 °F42.1 °F64 %30.11 in10.0 miCalmClear
9:52 PM55.0 °F42.1 °F62 %30.11 in10.0 miCalmClear
10:52 PM53.1 °F39.0 °F59 %30.12 in10.0 miESE (110°)3.5 mphClear
11:52 PM52.0 °F37.0 °F57 %30.13 in10.0 miESE (120°)3.5 mphClear
Hourly data recorded from KBLU, located miles away from Downieville, California







STORIES FROM OUR PARTNERS